| time (UTC) | temp F | wind direction | speed MPH | gust MPH | rain 1hr in | rain 24hr in | rain mn in | humidity % | barometer mb |
| 20260504081525 | 69 | 233 | 8.0 | 17.0 | 0.00 | 0.16 | 0.14 | 66 | 996.2 |
| 20260504045526 | 72 | 248 | 12.0 | 20.0 | 0.00 | 0.16 | 0.14 | 70 | 995.9 |
| 20260504043525 | 73 | 250 | 12.0 | 17.0 | 0.00 | 0.16 | 0.14 | 70 | 995.9 |
| 20260504041525 | 73 | 273 | 8.0 | 18.0 | 0.00 | 0.16 | 0.14 | 70 | 996.1 |
| 20260504035524 | 73 | 248 | 6.0 | 19.0 | 0.00 | 0.16 | 0.14 | 70 | 996.5 |
| 20260504033525 | 74 | 232 | 9.0 | 16.0 | 0.00 | 0.16 | 0.14 | 69 | 996.6 |
| 20260504031526 | 74 | 255 | 6.0 | 15.0 | 0.00 | 0.16 | 0.14 | 69 | 996.5 |
| 20260504025525 | 74 | 262 | 6.0 | 15.0 | 0.00 | 0.16 | 0.14 | 72 | 997.0 |
| 20260504023525 | 74 | 239 | 5.0 | 13.0 | 0.00 | 0.16 | 0.14 | 74 | 997.2 |
| 20260504021526 | 73 | 228 | 9.0 | 18.0 | 0.00 | 0.16 | 0.14 | 74 | 997.1 |
| 20260504015525 | 73 | 236 | 6.0 | 21.0 | 0.00 | 0.16 | 0.14 | 75 | 997.0 |
| 20260504013524 | 73 | 286 | 12.0 | 19.0 | 0.00 | 0.16 | 0.14 | 76 | 997.2 |
| 20260504011525 | 72 | 258 | 7.0 | 19.0 | 0.00 | 0.16 | 0.14 | 76 | 997.2 |
| 20260504005524 | 72 | 258 | 5.0 | 21.0 | 0.00 | 0.16 | 0.14 | 81 | 997.2 |
| 20260504003525 | 70 | 253 | 10.0 | 19.0 | 0.00 | 0.16 | 0.14 | 88 | 997.1 |
| 20260504001525 | 69 | 260 | 9.0 | 15.0 | 0.00 | 0.16 | 0.14 | 91 | 997.2 |
| 20260503235525 | 69 | 242 | 10.0 | 16.0 | 0.00 | 0.16 | 0.14 | 92 | 997.1 |
| 20260503233525 | 69 | 259 | 7.0 | 17.0 | 0.00 | 0.16 | 0.14 | 92 | 997.1 |
| 20260503231526 | 70 | 251 | 8.0 | 15.0 | 0.00 | 0.16 | 0.14 | 91 | 997.8 |
| 20260503225525 | 71 | 220 | 9.0 | 22.0 | 0.00 | 0.16 | 0.14 | 92 | 997.5 |
| 20260503223525 | 71 | 241 | 8.0 | 28.0 | 0.00 | 0.16 | 0.14 | 92 | 997.4 |
| 20260503221525 | 71 | 280 | 11.0 | 19.0 | 0.00 | 0.16 | 0.14 | 92 | 997.5 |
| 20260503215525 | 71 | 262 | 10.0 | 22.0 | 0.00 | 0.16 | 0.14 | 93 | 997.2 |
| 20260503213526 | 71 | 287 | 11.0 | 21.0 | 0.00 | 0.16 | 0.14 | 93 | 997.3 |
| 20260503211524 | 71 | 240 | 9.0 | 22.0 | 0.01 | 0.16 | 0.14 | 93 | 997.5 |
| 20260503205525 | 71 | 218 | 10.0 | 25.0 | 0.03 | 0.16 | 0.14 | 93 | 997.3 |
| 20260503203525 | 71 | 236 | 18.0 | 28.0 | 0.03 | 0.16 | 0.14 | 93 | 997.3 |
| 20260503201524 | 71 | 301 | 9.0 | 23.0 | 0.02 | 0.15 | 0.12 | 91 | 997.2 |
| 20260503195524 | 71 | 240 | 12.0 | 26.0 | 0.00 | 0.12 | 0.10 | 91 | 997.6 |
| 20260503193525 | 71 | 247 | 12.0 | 23.0 | 0.00 | 0.12 | 0.10 | 92 | 997.8 |
| 20260503191525 | 69 | 246 | 9.0 | 15.0 | 0.00 | 0.12 | 0.10 | 92 | 997.5 |
| 20260503185525 | 69 | 265 | 9.0 | 17.0 | 0.00 | 0.12 | 0.10 | 93 | 998.0 |
| 20260503183525 | 69 | 243 | 7.0 | 18.0 | 0.01 | 0.12 | 0.10 | 93 | 998.4 |
| 20260503181526 | 68 | 270 | 10.0 | 15.0 | 0.01 | 0.12 | 0.10 | 93 | 998.7 |